STARLINK-35892, 67115

Orbit data source: Space-Track

STARLINK-35892, 67115 is a payload satellite owned by SpaceX/Seattle (US) in LEO that was launched on Mon, 15 Dec 2025 UTC via an FALCON 9 launch vehicle from the Air Force Eastern Test Range (AFETR). Payload-class satellites include a variety of spacecraft equipped with specific instruments for various scientific and technological missions. These include communications satellites like Starlink; space stations such as the ISS; scientific satellites like the Hubble; Earth observation satellites from companies like Planet Labs, Umbra, and HawkEye 360; GPS; miniature CubeSats for education and research; and military/defense satellites.

Not visible in the next 10 days
Identifier
67115, 2025-299P
Orbit
LEO
Country
Flag of USUS
Related business
Manufacturer
SpaceX/Seattle
Mission
Operational spacecraft
Bus & Motor
STARLINK V2MO, Unknown motor
Mass
575 kg wet, ~530 kg dry
Launch date (UTC)
2025-12-15 (1 week ago)
Launch vehicle
FALCON 9
Launch site
Air Force Eastern Test Range (AFETR)
Object type
Payload
Rocket body
Debris
Shape & HBR
Unknown
Radar Cross Section
RCS unknown

Expand to show TLE details & history
Last TLE update: 9 hours ago

TLE from 9 hours ago
0 STARLINK-35892
1 67115U 25299P   25355.16668980 -.01465595  63450-3 -34010-2 0  9999
2 67115  42.9997 265.3085 0001649 266.8200 310.9654 15.96276123  2052
Epoch: 2025-12-21T04:00Z
TLE epoch observation values (Epoch: 2025-12-21T04:00:01.998Z)
Latitude
-24.86379°
Longitude
-35.06954°
Altitude
290.116 km
Speed
7.735 km/s
True Right ascension
07h 39m 41s
True Declination
-24° 43' 25"
Sunlit
Object was in full shadow at epoch
Visualization orbit readout
Latitude
Unknown
Longitude
Unknown
Altitude
Unknown
Speed
Unknown
Apparent Right ascension
Unknown
Apparent Declination
Unknown
Sunlit
N/A
Visualization observer readout
Local Sidereal Time
12:18:36
Azimuth
Unknown
Elevation
Unknown
Doppler factor
Unknown
Orbital elements
Apogee altitude
287.863 km
Perigee altitude
285.665 km
Semi-major axis
6,664.901 km
Eccentricity
0.00016
Inclination
42.9997°
RAAN
265.3085°
Arg. of periapsis
266.82°
True anomaly
310.95113°
Mean anomaly
310.9654°
Eccentric anomaly
310.95826°
Mean motion
3.9889 °/min
Orbital period
90.25 mins
BSTAR
-0.003401
Loading maneuver chart data...
Computing Atmospheric mass density...
Loading historical data...
Loading historical data...
Loading historical data...
Loading historical data...
Loading historical data...
Loading historical data...
Loading historical data...

Documentation

Showing up to 5 results
|